Location: Feydey
(46.3431°N, 7.0106°E)
Time: 15:31:57
(UTC+00:00)

SL-4 R/B - Pass Details

Date: 20 June 2021
Orbit: 428 x 662 km, 51.6° (Epoch: 02 August)

Event Time Altitude Azimuth Distance (km) Brightness Sun altitude
Rises 20:14:59 0° 188° (S) 2,806 5.3 -7.0°
Reaches altitude 10° 20:18:19 10° 162° (SSE) 1,854 4.2 -7.4°
Maximum altitude 20:20:24 13° 133° (SE) 1,607 3.7 -7.7°
Drops below altitude 10° 20:22:25 10° 103° (ESE) 1,786 4.1 -7.9°
Sets 20:25:30 0° 76° (ENE) 2,621 5.2 -8.3°
